Yukidori Zawa_60 min,,,,,,,,
TIMESTAMP,Wind_Speed,Vector Wind_direction,Air_Temp,Humidity,Solar radiation_Avg,PAR_Avg,UV__Avg,Pressure
"(Local time, GMT+3hr)",(m/s),(degreeN),(��C),(%),(W/m^2),(��mol/m^2/s),(W/m^2),(hPa)
,,,,,,,,
2014/12/1 0:00,5.8 ,58 ,-2.8 ,63 ,7 ,20 ,0.4 ,974 
2014/12/1 1:00,6.6 ,57 ,-2.8 ,65 ,6 ,16 ,0.4 ,972 
2014/12/1 2:00,8.4 ,58 ,-3.2 ,69 ,4 ,16 ,0.5 ,970 
2014/12/1 3:00,9.8 ,60 ,-4.1 ,82 ,8 ,28 ,0.9 ,967 
2014/12/1 4:00,9.5 ,62 ,-4.5 ,89 ,14 ,49 ,1.6 ,966 
2014/12/1 5:00,8.8 ,68 ,-4.6 ,87 ,22 ,77 ,2.5 ,965 
2014/12/1 6:00,12.0 ,63 ,-4.5 ,86 ,45 ,147 ,4.6 ,964 
2014/12/1 7:00,9.1 ,65 ,-4.6 ,94 ,76 ,239 ,7.1 ,963 
2014/12/1 8:00,9.7 ,67 ,-4.3 ,92 ,101 ,319 ,9.4 ,962 
2014/12/1 9:00,10.0 ,66 ,-4.2 ,94 ,182 ,554 ,15.9 ,962 
2014/12/1 10:00,14.7 ,67 ,-3.7 ,95 ,323 ,858 ,22.3 ,959 
2014/12/1 11:00,19.3 ,74 ,-3.3 ,91 ,388 ,971 ,24.5 ,958 
2014/12/1 12:00,19.2 ,71 ,-3.1 ,89 ,518 ,1088 ,30.6 ,959 
2014/12/1 13:00,18.3 ,73 ,-2.7 ,87 ,498 ,1095 ,30.3 ,958 
2014/12/1 14:00,16.3 ,74 ,-2.7 ,86 ,410 ,999 ,29.0 ,958 
2014/12/1 15:00,15.3 ,73 ,-2.8 ,84 ,212 ,630 ,18.8 ,959 
2014/12/1 16:00,14.9 ,72 ,-2.3 ,74 ,147 ,456 ,14.1 ,959 
2014/12/1 17:00,12.9 ,70 ,-2.0 ,68 ,113 ,356 ,11.2 ,960 
2014/12/1 18:00,11.8 ,70 ,-2.2 ,66 ,105 ,322 ,9.8 ,960 
2014/12/1 19:00,10.4 ,71 ,-2.1 ,65 ,79 ,234 ,7.0 ,960 
2014/12/1 20:00,9.4 ,68 ,-1.8 ,61 ,60 ,168 ,5.0 ,961 
2014/12/1 21:00,7.9 ,69 ,-2.3 ,64 ,35 ,99 ,3.0 ,961 
2014/12/1 22:00,7.7 ,66 ,-2.4 ,63 ,23 ,60 ,1.9 ,961 
2014/12/1 23:00,7.8 ,63 ,-2.6 ,62 ,14 ,36 ,1.2 ,961 
2014/12/2 0:00,6.1 ,71 ,-2.9 ,59 ,7 ,20 ,0.8 ,962 
2014/12/2 1:00,5.7 ,73 ,-3.3 ,60 ,3 ,13 ,0.7 ,961 
2014/12/2 2:00,7.1 ,63 ,-3.3 ,63 ,6 ,19 ,0.9 ,962 
2014/12/2 3:00,5.4 ,63 ,-3.1 ,60 ,10 ,31 ,1.5 ,962 
2014/12/2 4:00,4.6 ,97 ,-2.5 ,51 ,29 ,79 ,2.8 ,962 
2014/12/2 5:00,5.1 ,88 ,-2.6 ,53 ,57 ,155 ,4.9 ,962 
2014/12/2 6:00,5.1 ,85 ,-2.3 ,50 ,104 ,273 ,8.2 ,963 
2014/12/2 7:00,5.6 ,90 ,-1.7 ,49 ,177 ,446 ,12.9 ,963 
2014/12/2 8:00,5.7 ,100 ,-1.3 ,49 ,245 ,618 ,17.8 ,964 
2014/12/2 9:00,4.5 ,103 ,-0.8 ,49 ,311 ,780 ,22.5 ,964 
2014/12/2 10:00,4.8 ,97 ,-0.4 ,47 ,393 ,959 ,27.4 ,965 
2014/12/2 11:00,4.8 ,82 ,-0.1 ,45 ,461 ,1094 ,31.1 ,965 
2014/12/2 12:00,4.6 ,83 ,0.3 ,45 ,467 ,1124 ,32.2 ,966 
2014/12/2 13:00,4.5 ,80 ,0.6 ,45 ,465 ,1147 ,32.7 ,967 
2014/12/2 14:00,4.9 ,66 ,0.6 ,45 ,394 ,1015 ,28.9 ,967 
2014/12/2 15:00,5.3 ,65 ,0.9 ,44 ,370 ,938 ,26.6 ,968 
2014/12/2 16:00,5.8 ,62 ,0.8 ,44 ,359 ,878 ,25.0 ,969 
2014/12/2 17:00,5.6 ,66 ,0.8 ,43 ,284 ,715 ,19.7 ,970 
2014/12/2 18:00,2.4 ,312 ,0.4 ,43 ,221 ,548 ,15.0 ,971 
2014/12/2 19:00,2.0 ,5 ,0.4 ,41 ,175 ,421 ,11.4 ,972 
2014/12/2 20:00,1.7 ,70 ,0.5 ,35 ,87 ,214 ,7.2 ,972 
2014/12/2 21:00,1.7 ,48 ,0.0 ,58 ,93 ,187 ,5.2 ,973 
2014/12/2 22:00,1.3 ,63 ,-1.2 ,40 ,67 ,130 ,3.2 ,974 
2014/12/2 23:00,3.5 ,64 ,-1.4 ,36 ,18 ,46 ,1.7 ,974 
2014/12/3 0:00,4.7 ,78 ,-2.0 ,38 ,12 ,30 ,1.1 ,975 
2014/12/3 1:00,5.2 ,82 ,-2.5 ,38 ,11 ,29 ,1.0 ,975 
2014/12/3 2:00,4.8 ,66 ,-1.0 ,32 ,16 ,38 ,1.4 ,975 
2014/12/3 3:00,5.8 ,71 ,-2.5 ,32 ,20 ,55 ,2.5 ,976 
2014/12/3 4:00,6.6 ,74 ,-2.8 ,32 ,33 ,86 ,4.2 ,976 
2014/12/3 5:00,7.2 ,73 ,-3.0 ,33 ,39 ,112 ,6.8 ,976 
2014/12/3 6:00,7.0 ,72 ,-3.1 ,32 ,41 ,130 ,9.8 ,976 
2014/12/3 7:00,6.6 ,73 ,-2.2 ,34 ,292 ,557 ,16.6 ,977 
2014/12/3 8:00,6.2 ,74 ,-1.8 ,34 ,534 ,996 ,25.1 ,977 
2014/12/3 9:00,5.9 ,75 ,-0.9 ,37 ,669 ,1276 ,32.7 ,978 
2014/12/3 10:00,4.7 ,73 ,0.0 ,36 ,702 ,1368 ,36.3 ,978 
2014/12/3 11:00,2.7 ,79 ,1.1 ,37 ,720 ,1428 ,39.2 ,979 
2014/12/3 12:00,2.7 ,231 ,1.1 ,36 ,769 ,1503 ,41.4 ,979 
2014/12/3 13:00,2.8 ,224 ,1.0 ,37 ,782 ,1514 ,42.0 ,979 
2014/12/3 14:00,2.2 ,215 ,1.3 ,32 ,771 ,1483 ,41.4 ,980 
2014/12/3 15:00,2.3 ,212 ,1.9 ,35 ,759 ,1456 ,39.0 ,980 
2014/12/3 16:00,2.9 ,221 ,1.6 ,40 ,679 ,1295 ,34.1 ,980 
2014/12/3 17:00,3.1 ,226 ,1.4 ,38 ,576 ,1092 ,28.1 ,980 
2014/12/3 18:00,2.5 ,204 ,1.6 ,38 ,450 ,853 ,21.5 ,980 
2014/12/3 19:00,2.7 ,229 ,1.1 ,41 ,334 ,628 ,15.3 ,980 
2014/12/3 20:00,2.4 ,226 ,1.0 ,45 ,222 ,417 ,10.0 ,980 
2014/12/3 21:00,1.5 ,230 ,1.0 ,50 ,120 ,228 ,5.8 ,980 
2014/12/3 22:00,2.5 ,71 ,-0.8 ,47 ,70 ,132 ,3.3 ,980 
2014/12/3 23:00,3.2 ,77 ,-1.4 ,46 ,34 ,66 ,1.9 ,980 
2014/12/4 0:00,3.2 ,64 ,-2.2 ,46 ,14 ,33 ,1.1 ,980 
2014/12/4 1:00,3.4 ,61 ,-2.9 ,45 ,10 ,29 ,1.0 ,980 
2014/12/4 2:00,3.4 ,63 ,-3.3 ,45 ,11 ,37 ,1.5 ,980 
2014/12/4 3:00,3.5 ,67 ,-3.5 ,42 ,15 ,53 ,2.6 ,979 
2014/12/4 4:00,3.9 ,70 ,-3.8 ,42 ,21 ,75 ,4.6 ,979 
2014/12/4 5:00,2.9 ,72 ,-3.7 ,41 ,27 ,99 ,7.2 ,978 
2014/12/4 6:00,2.4 ,73 ,-3.3 ,40 ,34 ,120 ,10.1 ,978 
2014/12/4 7:00,1.4 ,283 ,-3.0 ,59 ,303 ,563 ,16.9 ,977 
2014/12/4 8:00,1.0 ,267 ,-2.2 ,53 ,530 ,969 ,24.5 ,976 
2014/12/4 9:00,1.4 ,270 ,-2.3 ,52 ,639 ,1181 ,30.5 ,976 
2014/12/4 10:00,1.3 ,302 ,-2.7 ,59 ,730 ,1364 ,35.7 ,976 
2014/12/4 11:00,1.9 ,262 ,-1.8 ,57 ,807 ,1504 ,40.5 ,975 
2014/12/4 12:00,2.5 ,265 ,-1.7 ,58 ,848 ,1588 ,43.2 ,975 
2014/12/4 13:00,2.4 ,246 ,-0.5 ,52 ,853 ,1606 ,43.9 ,974 
2014/12/4 14:00,2.7 ,254 ,-0.5 ,49 ,808 ,1525 ,42.5 ,974 
2014/12/4 15:00,2.7 ,239 ,-0.2 ,51 ,768 ,1450 ,39.1 ,973 
2014/12/4 16:00,2.7 ,251 ,0.3 ,50 ,688 ,1293 ,34.3 ,973 
2014/12/4 17:00,3.1 ,268 ,-0.1 ,51 ,584 ,1095 ,28.4 ,972 
2014/12/4 18:00,2.3 ,233 ,0.1 ,49 ,470 ,877 ,22.0 ,972 
2014/12/4 19:00,2.2 ,235 ,-0.2 ,53 ,352 ,655 ,15.8 ,971 
2014/12/4 20:00,1.7 ,239 ,-0.9 ,62 ,244 ,448 ,10.4 ,971 
2014/12/4 21:00,1.5 ,287 ,-1.2 ,65 ,148 ,273 ,6.3 ,971 
2014/12/4 22:00,1.3 ,339 ,-1.3 ,61 ,79 ,147 ,3.5 ,971 
2014/12/4 23:00,1.6 ,19 ,-1.6 ,33 ,30 ,66 ,1.9 ,971 
2014/12/5 0:00,3.4 ,71 ,-3.1 ,32 ,13 ,37 ,1.2 ,970 
2014/12/5 1:00,4.3 ,83 ,-3.4 ,31 ,9 ,31 ,1.1 ,970 
2014/12/5 2:00,4.1 ,72 ,-3.4 ,31 ,11 ,39 ,1.6 ,969 
2014/12/5 3:00,3.9 ,67 ,-3.6 ,29 ,15 ,56 ,2.7 ,969 
2014/12/5 4:00,5.2 ,73 ,-2.9 ,27 ,24 ,82 ,4.7 ,968 
2014/12/5 5:00,5.2 ,77 ,-3.3 ,28 ,51 ,137 ,7.5 ,967 
2014/12/5 6:00,5.5 ,85 ,-2.4 ,23 ,51 ,149 ,10.4 ,966 
2014/12/5 7:00,6.0 ,77 ,-2.4 ,29 ,291 ,558 ,16.9 ,965 
2014/12/5 8:00,5.7 ,77 ,-1.4 ,33 ,475 ,917 ,24.3 ,964 
2014/12/5 9:00,4.9 ,73 ,0.0 ,31 ,628 ,1183 ,30.8 ,962 
2014/12/5 10:00,5.1 ,79 ,0.3 ,31 ,615 ,1214 ,33.2 ,961 
2014/12/5 11:00,4.6 ,92 ,0.3 ,33 ,330 ,831 ,25.3 ,960 
2014/12/5 12:00,4.8 ,86 ,0.1 ,37 ,185 ,572 ,18.0 ,958 
2014/12/5 13:00,5.2 ,72 ,0.0 ,42 ,173 ,550 ,16.9 ,957 
2014/12/5 14:00,6.7 ,74 ,-0.5 ,51 ,187 ,566 ,16.7 ,956 
2014/12/5 15:00,5.6 ,79 ,-0.7 ,53 ,203 ,603 ,17.4 ,955 
2014/12/5 16:00,5.1 ,107 ,0.3 ,51 ,223 ,627 ,17.9 ,953 
2014/12/5 17:00,5.2 ,97 ,0.1 ,53 ,164 ,488 ,13.9 ,953 
2014/12/5 18:00,4.6 ,86 ,0.2 ,52 ,188 ,523 ,14.1 ,951 
2014/12/5 19:00,7.6 ,72 ,-0.6 ,64 ,154 ,424 ,10.8 ,951 
2014/12/5 20:00,8.8 ,63 ,-1.2 ,72 ,86 ,241 ,5.9 ,952 
2014/12/5 21:00,11.5 ,63 ,-0.8 ,67 ,45 ,131 ,3.2 ,953 
2014/12/5 22:00,11.5 ,65 ,-0.8 ,63 ,33 ,86 ,2.3 ,954 
2014/12/5 23:00,9.4 ,61 ,-1.2 ,63 ,20 ,49 ,1.5 ,955 
2014/12/6 0:00,8.6 ,61 ,-1.1 ,63 ,10 ,27 ,0.8 ,956 
2014/12/6 1:00,7.1 ,60 ,-1.1 ,61 ,10 ,26 ,0.8 ,956 
2014/12/6 2:00,6.5 ,64 ,-1.6 ,61 ,13 ,35 ,1.2 ,956 
2014/12/6 3:00,6.7 ,67 ,-1.6 ,60 ,34 ,80 ,2.3 ,956 
2014/12/6 4:00,6.8 ,64 ,-1.8 ,62 ,77 ,185 ,4.4 ,956 
2014/12/6 5:00,6.3 ,69 ,-2.0 ,68 ,149 ,378 ,8.7 ,956 
2014/12/6 6:00,6.5 ,71 ,-1.7 ,67 ,207 ,507 ,14.1 ,955 
2014/12/6 7:00,8.7 ,61 ,-0.9 ,63 ,419 ,921 ,20.9 ,955 
2014/12/6 8:00,9.3 ,62 ,-0.5 ,59 ,618 ,1312 ,29.2 ,955 
2014/12/6 9:00,12.6 ,63 ,-0.7 ,63 ,470 ,1056 ,27.9 ,956 
2014/12/6 10:00,13.9 ,65 ,-0.4 ,61 ,370 ,900 ,27.1 ,956 
2014/12/6 11:00,13.8 ,68 ,-0.5 ,62 ,312 ,866 ,26.0 ,957 
2014/12/6 12:00,12.4 ,64 ,0.2 ,57 ,290 ,866 ,26.0 ,958 
2014/12/6 13:00,10.6 ,61 ,0.2 ,55 ,285 ,858 ,25.9 ,958 
2014/12/6 14:00,8.6 ,61 ,0.5 ,55 ,238 ,733 ,22.5 ,958 
2014/12/6 15:00,6.8 ,65 ,0.4 ,53 ,217 ,656 ,20.0 ,957 
2014/12/6 16:00,7.8 ,67 ,0.2 ,53 ,170 ,524 ,16.0 ,957 
2014/12/6 17:00,6.4 ,74 ,0.3 ,52 ,142 ,437 ,13.2 ,957 
2014/12/6 18:00,4.8 ,93 ,0.4 ,49 ,91 ,296 ,9.0 ,957 
2014/12/6 19:00,4.2 ,102 ,0.0 ,50 ,67 ,219 ,6.6 ,957 
2014/12/6 20:00,4.2 ,92 ,0.1 ,48 ,52 ,168 ,5.0 ,957 
2014/12/6 21:00,4.7 ,71 ,-0.2 ,45 ,30 ,99 ,2.9 ,958 
2014/12/6 22:00,3.4 ,69 ,-0.4 ,47 ,16 ,53 ,1.5 ,959 
2014/12/6 23:00,3.0 ,45 ,-0.5 ,46 ,8 ,27 ,0.8 ,959 
2014/12/7 0:00,3.1 ,151 ,-0.6 ,43 ,4 ,14 ,0.5 ,959 
2014/12/7 1:00,3.4 ,135 ,-0.7 ,45 ,4 ,14 ,0.5 ,959 
2014/12/7 2:00,2.7 ,115 ,-1.0 ,47 ,6 ,21 ,0.7 ,959 
2014/12/7 3:00,2.4 ,7 ,-1.1 ,46 ,12 ,39 ,1.2 ,959 
2014/12/7 4:00,3.1 ,57 ,-1.1 ,46 ,20 ,66 ,2.0 ,959 
2014/12/7 5:00,4.8 ,66 ,-1.3 ,46 ,32 ,104 ,3.3 ,960 
2014/12/7 6:00,5.3 ,71 ,-1.5 ,47 ,56 ,179 ,5.7 ,961 
2014/12/7 7:00,4.2 ,81 ,-1.3 ,45 ,82 ,264 ,8.4 ,961 
2014/12/7 8:00,3.4 ,101 ,-1.0 ,46 ,124 ,389 ,12.1 ,962 
2014/12/7 9:00,4.2 ,68 ,-0.5 ,45 ,173 ,530 ,16.3 ,962 
2014/12/7 10:00,6.3 ,59 ,-0.1 ,43 ,230 ,675 ,20.6 ,962 
2014/12/7 11:00,6.5 ,64 ,0.3 ,42 ,242 ,716 ,22.0 ,963 
2014/12/7 12:00,5.5 ,70 ,0.7 ,42 ,299 ,843 ,25.5 ,963 
2014/12/7 13:00,3.9 ,73 ,1.2 ,41 ,353 ,939 ,28.2 ,963 
2014/12/7 14:00,2.1 ,346 ,1.5 ,41 ,261 ,736 ,22.0 ,964 
2014/12/7 15:00,2.6 ,321 ,1.9 ,36 ,251 ,688 ,20.1 ,964 
2014/12/7 16:00,3.3 ,51 ,1.6 ,36 ,265 ,687 ,20.1 ,965 
2014/12/7 17:00,1.1 ,289 ,0.7 ,55 ,154 ,443 ,12.5 ,965 
2014/12/7 18:00,1.2 ,281 ,0.5 ,60 ,203 ,503 ,13.7 ,965 
2014/12/7 19:00,1.1 ,314 ,0.4 ,64 ,213 ,493 ,11.9 ,966 
2014/12/7 20:00,1.0 ,290 ,-0.1 ,64 ,173 ,403 ,8.8 ,966 
2014/12/7 21:00,1.7 ,249 ,-0.9 ,75 ,138 ,291 ,6.1 ,967 
2014/12/7 22:00,1.1 ,210 ,-0.7 ,70 ,78 ,155 ,3.5 ,967 
2014/12/7 23:00,1.3 ,102 ,-1.2 ,47 ,34 ,70 ,2.0 ,968 
2014/12/8 0:00,1.7 ,60 ,-1.5 ,48 ,34 ,60 ,1.3 ,968 
2014/12/8 1:00,1.6 ,62 ,-1.3 ,47 ,27 ,51 ,1.1 ,969 
2014/12/8 2:00,0.5 ,248 ,-1.8 ,56 ,18 ,44 ,1.4 ,969 
2014/12/8 3:00,0.8 ,199 ,-1.7 ,56 ,18 ,51 ,2.1 ,970 
2014/12/8 4:00,1.4 ,212 ,-2.1 ,67 ,54 ,124 ,4.0 ,970 
2014/12/8 5:00,0.8 ,82 ,-2.0 ,64 ,87 ,196 ,6.9 ,970 
2014/12/8 6:00,0.4 ,321 ,-1.5 ,55 ,112 ,272 ,8.1 ,971 
2014/12/8 7:00,0.6 ,228 ,-1.2 ,58 ,131 ,340 ,9.9 ,971 
2014/12/8 8:00,0.9 ,283 ,-0.6 ,47 ,192 ,494 ,14.4 ,971 
2014/12/8 9:00,1.5 ,266 ,-0.7 ,59 ,265 ,660 ,19.3 ,972 
2014/12/8 10:00,1.3 ,273 ,-0.3 ,59 ,411 ,947 ,27.0 ,972 
2014/12/8 11:00,1.5 ,271 ,0.0 ,52 ,654 ,1356 ,37.3 ,972 
2014/12/8 12:00,2.1 ,248 ,0.6 ,42 ,851 ,1638 ,43.7 ,973 
2014/12/8 13:00,2.3 ,251 ,0.4 ,56 ,854 ,1643 ,44.3 ,973 
2014/12/8 14:00,2.1 ,260 ,0.0 ,57 ,686 ,1405 ,38.7 ,973 
2014/12/8 15:00,2.4 ,248 ,1.1 ,50 ,652 ,1364 ,35.6 ,974 
2014/12/8 16:00,2.5 ,256 ,0.5 ,51 ,589 ,1196 ,32.2 ,974 
2014/12/8 17:00,2.2 ,265 ,0.2 ,49 ,554 ,1109 ,28.3 ,974 
2014/12/8 18:00,1.8 ,245 ,0.2 ,54 ,532 ,1078 ,23.4 ,974 
2014/12/8 19:00,1.8 ,257 ,-0.4 ,61 ,451 ,860 ,17.4 ,974 
2014/12/8 20:00,1.5 ,271 ,-0.9 ,69 ,187 ,393 ,9.0 ,974 
2014/12/8 21:00,1.7 ,269 ,-0.7 ,68 ,175 ,332 ,5.3 ,975 
2014/12/8 22:00,1.5 ,270 ,-0.8 ,67 ,143 ,242 ,3.6 ,975 
2014/12/8 23:00,1.6 ,277 ,-1.6 ,69 ,24 ,52 ,1.3 ,975 
2014/12/9 0:00,1.8 ,280 ,-2.4 ,72 ,18 ,39 ,1.0 ,976 
2014/12/9 1:00,2.6 ,41 ,-2.6 ,75 ,16 ,39 ,1.2 ,976 
2014/12/9 2:00,2.8 ,41 ,-2.9 ,76 ,19 ,49 ,1.6 ,976 
2014/12/9 3:00,3.5 ,47 ,-3.8 ,84 ,23 ,66 ,2.8 ,976 
2014/12/9 4:00,3.3 ,54 ,-3.7 ,83 ,27 ,89 ,4.8 ,976 
2014/12/9 5:00,2.1 ,53 ,-4.3 ,81 ,54 ,144 ,7.6 ,976 
2014/12/9 6:00,3.3 ,63 ,-5.3 ,86 ,69 ,178 ,10.6 ,976 
2014/12/9 7:00,2.7 ,57 ,-3.5 ,70 ,321 ,599 ,17.4 ,976 
2014/12/9 8:00,1.8 ,271 ,-5.4 ,77 ,433 ,827 ,23.1 ,977 
2014/12/9 9:00,2.6 ,62 ,-4.7 ,76 ,614 ,1152 ,30.2 ,977 
2014/12/9 10:00,3.2 ,69 ,-4.0 ,75 ,823 ,1532 ,37.6 ,977 
2014/12/9 11:00,2.3 ,43 ,-2.6 ,69 ,825 ,1560 ,40.8 ,977 
2014/12/9 12:00,1.8 ,5 ,-2.5 ,68 ,659 ,1308 ,35.1 ,978 
2014/12/9 13:00,2.0 ,276 ,-2.7 ,72 ,431 ,933 ,27.3 ,978 
2014/12/9 14:00,2.3 ,279 ,-2.6 ,68 ,394 ,877 ,24.7 ,978 
2014/12/9 15:00,1.8 ,262 ,-2.0 ,63 ,446 ,958 ,27.1 ,979 
2014/12/9 16:00,2.0 ,262 ,-0.8 ,60 ,569 ,1134 ,29.6 ,978 
2014/12/9 17:00,2.1 ,272 ,-1.3 ,64 ,587 ,1164 ,26.7 ,978 
2014/12/9 18:00,1.5 ,336 ,-0.9 ,62 ,326 ,688 ,17.7 ,978 
2014/12/9 19:00,1.4 ,22 ,-1.3 ,64 ,406 ,754 ,16.8 ,978 
2014/12/9 20:00,2.0 ,24 ,-1.4 ,70 ,300 ,544 ,11.1 ,978 
2014/12/9 21:00,2.0 ,248 ,-2.1 ,74 ,264 ,459 ,6.3 ,978 
2014/12/9 22:00,1.3 ,250 ,-2.5 ,77 ,97 ,174 ,3.7 ,978 
2014/12/9 23:00,0.9 ,253 ,-2.6 ,78 ,29 ,69 ,2.2 ,978 
2014/12/10 0:00,0.7 ,256 ,-3.6 ,83 ,23 ,49 ,1.5 ,978 
2014/12/10 1:00,1.6 ,18 ,-3.8 ,53 ,16 ,44 ,1.4 ,977 
2014/12/10 2:00,2.8 ,69 ,-4.2 ,52 ,27 ,63 ,1.9 ,976 
2014/12/10 3:00,3.0 ,71 ,-4.4 ,51 ,25 ,70 ,2.9 ,976 
2014/12/10 4:00,3.4 ,71 ,-4.4 ,50 ,51 ,124 ,5.0 ,975 
2014/12/10 5:00,3.3 ,75 ,-3.7 ,43 ,108 ,231 ,7.9 ,974 
2014/12/10 6:00,1.9 ,80 ,-3.0 ,38 ,173 ,375 ,12.1 ,973 
2014/12/10 7:00,1.5 ,46 ,-2.8 ,60 ,266 ,577 ,16.4 ,972 
2014/12/10 8:00,1.6 ,260 ,-2.2 ,53 ,492 ,948 ,24.3 ,971 
2014/12/10 9:00,2.9 ,53 ,-0.8 ,32 ,616 ,1184 ,30.7 ,970 
2014/12/10 10:00,3.2 ,273 ,-1.0 ,48 ,612 ,1241 ,34.1 ,970 
2014/12/10 11:00,2.5 ,245 ,-0.5 ,45 ,646 ,1295 ,36.8 ,969 
2014/12/10 12:00,2.7 ,238 ,-0.5 ,46 ,807 ,1577 ,42.9 ,968 
2014/12/10 13:00,3.1 ,262 ,0.4 ,42 ,709 ,1437 ,40.4 ,967 
2014/12/10 14:00,2.4 ,199 ,1.0 ,41 ,767 ,1598 ,42.8 ,965 
2014/12/10 15:00,2.5 ,217 ,1.7 ,43 ,685 ,1413 ,38.6 ,964 
2014/12/10 16:00,1.9 ,266 ,1.8 ,44 ,604 ,1217 ,32.9 ,962 
2014/12/10 17:00,2.4 ,5 ,3.1 ,32 ,415 ,887 ,25.3 ,961 
2014/12/10 18:00,2.1 ,38 ,3.1 ,36 ,494 ,980 ,23.6 ,961 
2014/12/10 19:00,1.8 ,340 ,2.8 ,35 ,357 ,687 ,16.5 ,960 
2014/12/10 20:00,1.8 ,328 ,2.3 ,33 ,269 ,503 ,11.3 ,960 
2014/12/10 21:00,3.8 ,57 ,1.0 ,32 ,107 ,222 ,6.5 ,960 
2014/12/10 22:00,3.7 ,62 ,0.5 ,33 ,48 ,102 ,3.7 ,960 
2014/12/10 23:00,3.9 ,58 ,1.3 ,25 ,27 ,59 ,2.2 ,961 
2014/12/11 0:00,3.2 ,66 ,-0.7 ,36 ,17 ,39 ,1.4 ,962 
2014/12/11 1:00,1.7 ,9 ,-2.0 ,39 ,15 ,39 ,1.4 ,963 
2014/12/11 2:00,4.6 ,61 ,-2.3 ,33 ,17 ,49 ,1.8 ,963 
2014/12/11 3:00,5.9 ,73 ,-2.4 ,35 ,23 ,69 ,3.0 ,963 
2014/12/11 4:00,5.8 ,70 ,-2.1 ,37 ,34 ,98 ,5.0 ,964 
2014/12/11 5:00,5.7 ,70 ,-1.8 ,38 ,49 ,135 ,7.6 ,964 
2014/12/11 6:00,5.6 ,72 ,-1.4 ,40 ,159 ,342 ,10.7 ,965 
2014/12/11 7:00,5.3 ,68 ,-1.2 ,40 ,168 ,402 ,11.8 ,965 
2014/12/11 8:00,4.5 ,71 ,-0.4 ,41 ,219 ,533 ,15.5 ,965 
2014/12/11 9:00,4.1 ,68 ,0.5 ,40 ,276 ,684 ,19.6 ,966 
2014/12/11 10:00,3.9 ,72 ,1.2 ,40 ,393 ,924 ,25.9 ,966 
2014/12/11 11:00,3.9 ,72 ,2.0 ,38 ,477 ,1094 ,30.6 ,967 
2014/12/11 12:00,4.5 ,67 ,2.4 ,40 ,467 ,1104 ,31.6 ,967 
2014/12/11 13:00,4.7 ,66 ,2.5 ,38 ,494 ,1146 ,33.1 ,967 
2014/12/11 14:00,5.4 ,69 ,2.9 ,40 ,520 ,1181 ,34.0 ,968 
2014/12/11 15:00,6.3 ,71 ,2.8 ,38 ,424 ,1013 ,29.0 ,968 
2014/12/11 16:00,4.0 ,71 ,2.9 ,39 ,311 ,783 ,22.8 ,968 
2014/12/11 17:00,3.5 ,76 ,2.3 ,40 ,207 ,558 ,16.5 ,968 
2014/12/11 18:00,2.2 ,50 ,2.0 ,39 ,148 ,410 ,12.2 ,969 
2014/12/11 19:00,2.9 ,54 ,1.5 ,38 ,84 ,249 ,7.6 ,968 
2014/12/11 20:00,3.3 ,57 ,1.5 ,39 ,48 ,146 ,4.6 ,969 
2014/12/11 21:00,2.2 ,82 ,1.2 ,38 ,33 ,99 ,2.9 ,969 
2014/12/11 22:00,2.0 ,233 ,0.7 ,42 ,15 ,48 ,1.5 ,969 
2014/12/11 23:00,4.3 ,64 ,-0.1 ,50 ,7 ,23 ,0.8 ,969 
2014/12/12 0:00,4.9 ,76 ,-0.1 ,47 ,5 ,16 ,0.5 ,969 
2014/12/12 1:00,5.4 ,77 ,-0.9 ,52 ,8 ,22 ,0.7 ,970 
2014/12/12 2:00,4.3 ,77 ,-0.9 ,50 ,11 ,29 ,0.9 ,970 
2014/12/12 3:00,4.7 ,91 ,-0.7 ,51 ,18 ,47 ,1.6 ,970 
2014/12/12 4:00,4.5 ,68 ,-1.2 ,54 ,30 ,82 ,2.5 ,971 
2014/12/12 5:00,4.1 ,104 ,-0.8 ,52 ,44 ,123 ,3.5 ,971 
2014/12/12 6:00,5.0 ,67 ,-0.9 ,53 ,88 ,234 ,6.6 ,971 
2014/12/12 7:00,5.3 ,68 ,-0.7 ,53 ,146 ,379 ,10.7 ,971 
2014/12/12 8:00,4.7 ,83 ,-0.3 ,54 ,192 ,500 ,14.2 ,972 
2014/12/12 9:00,5.5 ,70 ,0.0 ,53 ,263 ,665 ,18.9 ,972 
2014/12/12 10:00,6.5 ,64 ,0.1 ,52 ,296 ,751 ,21.1 ,973 
2014/12/12 11:00,8.1 ,62 ,0.1 ,54 ,367 ,895 ,25.8 ,973 
2014/12/12 12:00,8.0 ,66 ,0.1 ,53 ,359 ,909 ,26.6 ,974 
2014/12/12 13:00,7.4 ,65 ,0.2 ,54 ,329 ,871 ,24.7 ,975 
2014/12/12 14:00,8.0 ,69 ,-0.2 ,54 ,259 ,711 ,20.7 ,975 
2014/12/12 15:00,7.5 ,68 ,0.3 ,53 ,328 ,860 ,23.3 ,976 
2014/12/12 16:00,8.0 ,70 ,0.4 ,51 ,391 ,931 ,24.6 ,976 
2014/12/12 17:00,6.4 ,64 ,0.4 ,51 ,269 ,631 ,17.6 ,976 
2014/12/12 18:00,6.0 ,67 ,0.3 ,52 ,153 ,396 ,11.2 ,977 
2014/12/12 19:00,5.4 ,71 ,0.3 ,50 ,129 ,314 ,9.5 ,977 
2014/12/12 20:00,3.9 ,72 ,0.2 ,53 ,70 ,184 ,5.6 ,978 
2014/12/12 21:00,2.6 ,123 ,-1.1 ,80 ,60 ,149 ,3.8 ,978 
2014/12/12 22:00,2.4 ,212 ,-0.6 ,65 ,36 ,84 ,2.1 ,979 
2014/12/12 23:00,2.3 ,255 ,-0.4 ,52 ,27 ,59 ,1.7 ,979 
2014/12/13 0:00,1.2 ,79 ,-0.5 ,53 ,29 ,55 ,1.2 ,979 
2014/12/13 1:00,1.6 ,9 ,-0.6 ,53 ,32 ,57 ,0.8 ,979 
2014/12/13 2:00,3.5 ,65 ,-1.2 ,54 ,15 ,37 ,1.0 ,979 
2014/12/13 3:00,5.4 ,64 ,-1.3 ,54 ,18 ,49 ,1.6 ,979 
2014/12/13 4:00,4.4 ,64 ,-1.5 ,55 ,39 ,97 ,3.1 ,979 
2014/12/13 5:00,4.3 ,65 ,-1.3 ,56 ,57 ,148 ,4.6 ,980 
2014/12/13 6:00,4.4 ,59 ,-1.3 ,57 ,90 ,234 ,7.1 ,979 
2014/12/13 7:00,4.3 ,65 ,-0.7 ,55 ,118 ,310 ,9.0 ,980 
2014/12/13 8:00,3.3 ,70 ,-0.3 ,55 ,153 ,410 ,11.9 ,980 
2014/12/13 9:00,4.5 ,60 ,0.2 ,54 ,170 ,468 ,14.1 ,980 
2014/12/13 10:00,5.1 ,66 ,0.1 ,55 ,209 ,585 ,17.2 ,980 
2014/12/13 11:00,5.6 ,66 ,0.7 ,53 ,214 ,620 ,18.1 ,981 
2014/12/13 12:00,6.1 ,71 ,1.0 ,53 ,332 ,876 ,24.7 ,981 
2014/12/13 13:00,4.9 ,71 ,1.4 ,52 ,303 ,821 ,24.0 ,981 
2014/12/13 14:00,6.1 ,71 ,1.3 ,53 ,310 ,824 ,24.0 ,981 
2014/12/13 15:00,4.2 ,71 ,1.6 ,53 ,285 ,758 ,21.3 ,981 
2014/12/13 16:00,2.2 ,71 ,0.7 ,72 ,226 ,605 ,17.5 ,982 
2014/12/13 17:00,2.0 ,212 ,-0.2 ,84 ,135 ,386 ,11.1 ,982 
2014/12/13 18:00,1.9 ,205 ,-0.6 ,84 ,146 ,378 ,10.9 ,982 
2014/12/13 19:00,2.0 ,190 ,-0.5 ,86 ,132 ,328 ,9.3 ,981 
2014/12/13 20:00,1.9 ,189 ,-0.7 ,88 ,91 ,229 ,6.7 ,981 
2014/12/13 21:00,1.6 ,184 ,-0.9 ,87 ,68 ,165 ,4.7 ,981 
2014/12/13 22:00,0.8 ,255 ,-1.1 ,87 ,70 ,145 ,3.6 ,981 
2014/12/13 23:00,0.8 ,311 ,-0.4 ,51 ,62 ,110 ,2.4 ,980 
2014/12/14 0:00,2.9 ,56 ,-0.6 ,36 ,26 ,53 ,1.6 ,980 
2014/12/14 1:00,4.2 ,60 ,-1.3 ,37 ,10 ,37 ,1.4 ,979 
2014/12/14 2:00,3.7 ,61 ,-0.2 ,29 ,13 ,44 ,1.9 ,978 
2014/12/14 3:00,5.7 ,76 ,-0.6 ,30 ,16 ,60 ,3.0 ,977 
2014/12/14 4:00,6.2 ,75 ,-0.2 ,29 ,23 ,81 ,4.9 ,976 
2014/12/14 5:00,6.5 ,80 ,0.0 ,27 ,31 ,106 ,7.4 ,976 
2014/12/14 6:00,5.9 ,90 ,0.6 ,26 ,47 ,143 ,10.3 ,975 
2014/12/14 7:00,5.8 ,79 ,0.1 ,32 ,318 ,597 ,17.2 ,974 
2014/12/14 8:00,4.2 ,69 ,1.4 ,32 ,517 ,954 ,24.1 ,974 
2014/12/14 9:00,2.2 ,99 ,3.1 ,30 ,582 ,1101 ,29.0 ,973 
2014/12/14 10:00,2.0 ,178 ,3.3 ,28 ,690 ,1351 ,35.6 ,973 
2014/12/14 11:00,2.2 ,253 ,3.9 ,26 ,799 ,1537 ,40.8 ,972 
2014/12/14 12:00,1.9 ,254 ,5.2 ,29 ,822 ,1580 ,42.6 ,972 
2014/12/14 13:00,2.3 ,275 ,5.5 ,30 ,850 ,1644 ,44.2 ,971 
2014/12/14 14:00,2.3 ,357 ,5.7 ,35 ,805 ,1601 ,42.9 ,971 
2014/12/14 15:00,1.8 ,318 ,5.8 ,33 ,745 ,1429 ,39.2 ,971 
2014/12/14 16:00,3.1 ,18 ,4.9 ,40 ,659 ,1296 ,34.3 ,970 
2014/12/14 17:00,5.9 ,71 ,4.5 ,43 ,559 ,1086 ,28.4 ,971 
2014/12/14 18:00,6.2 ,65 ,4.4 ,42 ,454 ,883 ,22.6 ,971 
2014/12/14 19:00,3.5 ,46 ,4.1 ,44 ,285 ,563 ,15.2 ,972 
2014/12/14 20:00,3.0 ,39 ,3.5 ,44 ,252 ,486 ,11.3 ,973 
2014/12/14 21:00,3.5 ,56 ,2.5 ,48 ,178 ,342 ,7.4 ,974 
2014/12/14 22:00,2.6 ,59 ,2.4 ,44 ,86 ,170 ,4.2 ,974 
2014/12/14 23:00,3.8 ,71 ,1.4 ,44 ,40 ,78 ,2.2 ,975 
2014/12/15 0:00,3.5 ,57 ,1.4 ,44 ,20 ,43 ,1.3 ,976 
2014/12/15 1:00,3.3 ,71 ,1.5 ,34 ,16 ,36 ,1.0 ,976 
2014/12/15 2:00,3.2 ,65 ,-0.2 ,37 ,23 ,50 ,1.4 ,976 
2014/12/15 3:00,5.5 ,68 ,-0.6 ,38 ,36 ,78 ,2.4 ,977 
2014/12/15 4:00,5.3 ,72 ,-0.5 ,36 ,61 ,136 ,4.1 ,977 
2014/12/15 5:00,5.3 ,70 ,-0.7 ,35 ,112 ,238 ,7.4 ,977 
2014/12/15 6:00,5.6 ,70 ,-0.6 ,33 ,126 ,279 ,10.7 ,977 
2014/12/15 7:00,5.7 ,75 ,-0.2 ,33 ,273 ,556 ,16.7 ,977 
2014/12/15 8:00,5.6 ,72 ,0.3 ,37 ,492 ,976 ,24.7 ,978 
2014/12/15 9:00,5.1 ,68 ,1.0 ,36 ,573 ,1136 ,29.8 ,978 
2014/12/15 10:00,4.3 ,66 ,1.9 ,35 ,693 ,1378 ,35.8 ,979 
2014/12/15 11:00,2.7 ,51 ,3.2 ,30 ,767 ,1527 ,40.3 ,979 
2014/12/15 12:00,1.7 ,47 ,3.9 ,25 ,770 ,1556 ,41.9 ,979 
2014/12/15 13:00,2.4 ,248 ,3.5 ,34 ,793 ,1603 ,43.0 ,979 
2014/12/15 14:00,2.1 ,228 ,3.9 ,38 ,630 ,1368 ,38.2 ,979 
2014/12/15 15:00,2.5 ,19 ,3.6 ,38 ,701 ,1432 ,38.6 ,979 
2014/12/15 16:00,1.8 ,18 ,3.4 ,35 ,550 ,1140 ,31.2 ,979 
2014/12/15 17:00,1.7 ,352 ,3.5 ,33 ,459 ,961 ,26.1 ,979 
2014/12/15 18:00,1.5 ,315 ,2.8 ,40 ,308 ,678 ,19.2 ,980 
2014/12/15 19:00,1.3 ,16 ,2.6 ,40 ,204 ,484 ,13.4 ,980 
2014/12/15 20:00,1.4 ,249 ,1.5 ,51 ,137 ,333 ,9.1 ,980 
2014/12/15 21:00,1.2 ,293 ,1.9 ,39 ,81 ,201 ,5.4 ,980 
2014/12/15 22:00,1.2 ,10 ,1.7 ,39 ,63 ,139 ,3.6 ,981 
2014/12/15 23:00,0.8 ,1 ,0.9 ,55 ,28 ,63 ,2.1 ,981 
2014/12/16 0:00,1.4 ,19 ,1.3 ,45 ,14 ,33 ,1.2 ,981 
2014/12/16 1:00,3.0 ,69 ,1.0 ,45 ,13 ,31 ,1.1 ,981 
2014/12/16 2:00,5.2 ,74 ,0.1 ,45 ,17 ,42 ,1.4 ,982 
2014/12/16 3:00,5.2 ,76 ,-0.1 ,41 ,32 ,74 ,2.4 ,982 
2014/12/16 4:00,5.3 ,75 ,-0.5 ,38 ,58 ,133 ,4.1 ,982 
2014/12/16 5:00,5.1 ,75 ,-0.7 ,38 ,99 ,223 ,7.0 ,982 
2014/12/16 6:00,5.3 ,74 ,-0.8 ,38 ,122 ,279 ,10.2 ,982 
2014/12/16 7:00,5.4 ,72 ,-0.8 ,39 ,259 ,513 ,15.8 ,983 
2014/12/16 8:00,4.9 ,70 ,0.0 ,35 ,527 ,984 ,24.4 ,983 
2014/12/16 9:00,5.1 ,71 ,0.2 ,35 ,630 ,1187 ,30.3 ,983 
2014/12/16 10:00,4.8 ,71 ,0.8 ,34 ,731 ,1371 ,35.3 ,983 
2014/12/16 11:00,4.7 ,71 ,1.6 ,31 ,778 ,1491 ,39.2 ,983 
2014/12/16 12:00,3.2 ,62 ,2.1 ,31 ,613 ,1287 ,36.4 ,983 
2014/12/16 13:00,2.4 ,38 ,2.9 ,27 ,785 ,1527 ,41.8 ,982 
2014/12/16 14:00,2.4 ,30 ,2.8 ,31 ,809 ,1583 ,42.5 ,982 
2014/12/16 15:00,2.0 ,334 ,3.3 ,36 ,783 ,1464 ,39.6 ,982 
2014/12/16 16:00,2.5 ,245 ,2.1 ,42 ,654 ,1266 ,33.9 ,982 
2014/12/16 17:00,2.5 ,257 ,2.5 ,40 ,558 ,1070 ,28.3 ,981 
2014/12/16 18:00,2.2 ,237 ,2.2 ,40 ,487 ,919 ,23.0 ,980 
2014/12/16 19:00,2.4 ,260 ,2.2 ,41 ,374 ,698 ,16.9 ,980 
2014/12/16 20:00,2.0 ,13 ,2.1 ,37 ,265 ,490 ,11.5 ,980 
2014/12/16 21:00,2.8 ,51 ,1.1 ,36 ,171 ,311 ,7.2 ,980 
2014/12/16 22:00,4.5 ,76 ,0.6 ,32 ,97 ,177 ,4.2 ,980 
2014/12/16 23:00,5.4 ,71 ,-0.5 ,36 ,43 ,87 ,2.5 ,980 
2014/12/17 0:00,5.4 ,67 ,-1.3 ,38 ,28 ,55 ,1.7 ,980 
2014/12/17 1:00,5.4 ,67 ,-1.7 ,37 ,11 ,38 ,1.5 ,979 
2014/12/17 2:00,5.9 ,77 ,-1.5 ,33 ,13 ,45 ,1.9 ,979 
2014/12/17 3:00,6.8 ,76 ,-2.7 ,37 ,17 ,60 ,3.0 ,979 
2014/12/17 4:00,6.5 ,71 ,-2.4 ,36 ,23 ,80 ,4.9 ,979 
2014/12/17 5:00,6.6 ,72 ,-2.2 ,34 ,29 ,102 ,7.3 ,979 
2014/12/17 6:00,6.3 ,78 ,-2.0 ,35 ,36 ,124 ,10.1 ,979 
2014/12/17 7:00,6.0 ,74 ,-1.1 ,33 ,309 ,573 ,16.9 ,979 
2014/12/17 8:00,5.4 ,72 ,-0.3 ,28 ,539 ,975 ,24.4 ,979 
2014/12/17 9:00,5.5 ,79 ,0.3 ,33 ,649 ,1186 ,30.4 ,978 
2014/12/17 10:00,5.8 ,75 ,0.5 ,35 ,747 ,1371 ,35.5 ,978 
2014/12/17 11:00,5.0 ,70 ,1.2 ,35 ,820 ,1515 ,40.3 ,978 
2014/12/17 12:00,4.8 ,70 ,2.4 ,35 ,863 ,1603 ,43.1 ,977 
2014/12/17 13:00,3.6 ,93 ,2.9 ,31 ,868 ,1628 ,43.9 ,977 
2014/12/17 14:00,3.3 ,245 ,2.7 ,34 ,828 ,1603 ,42.8 ,977 
2014/12/17 15:00,2.5 ,250 ,2.8 ,31 ,790 ,1452 ,39.6 ,976 
2014/12/17 16:00,2.3 ,259 ,3.1 ,28 ,713 ,1342 ,35.0 ,975 
2014/12/17 17:00,2.7 ,263 ,2.8 ,45 ,622 ,1168 ,29.6 ,975 
2014/12/17 18:00,1.7 ,267 ,2.9 ,29 ,500 ,933 ,23.2 ,974 
2014/12/17 19:00,1.4 ,344 ,2.7 ,30 ,382 ,703 ,17.0 ,974 
2014/12/17 20:00,1.4 ,346 ,2.2 ,35 ,272 ,494 ,11.5 ,974 
2014/12/17 21:00,4.1 ,67 ,0.6 ,43 ,176 ,314 ,7.3 ,973 
2014/12/17 22:00,3.7 ,76 ,0.7 ,36 ,100 ,180 ,4.3 ,974 
2014/12/17 23:00,5.1 ,75 ,-0.5 ,38 ,43 ,86 ,2.5 ,974 
2014/12/18 0:00,5.3 ,68 ,-1.4 ,38 ,29 ,57 ,1.7 ,974 
2014/12/18 1:00,5.6 ,67 ,-2.0 ,41 ,11 ,38 ,1.5 ,974 
2014/12/18 2:00,6.0 ,67 ,-2.6 ,41 ,12 ,45 ,1.9 ,975 
2014/12/18 3:00,5.9 ,66 ,-2.8 ,41 ,17 ,60 ,3.0 ,975 
2014/12/18 4:00,5.7 ,67 ,-2.9 ,41 ,23 ,80 ,4.9 ,975 
2014/12/18 5:00,4.8 ,65 ,-2.5 ,44 ,29 ,102 ,7.3 ,975 
2014/12/18 6:00,4.7 ,66 ,-1.8 ,43 ,43 ,136 ,10.1 ,975 
2014/12/18 7:00,5.1 ,74 ,-0.5 ,40 ,323 ,600 ,16.9 ,974 
2014/12/18 8:00,4.8 ,73 ,0.2 ,40 ,552 ,1002 ,24.5 ,974 
2014/12/18 9:00,4.8 ,67 ,0.8 ,39 ,651 ,1204 ,30.4 ,975 
2014/12/18 10:00,4.9 ,63 ,0.8 ,39 ,569 ,1113 ,31.1 ,974 
2014/12/18 11:00,5.9 ,61 ,1.6 ,37 ,659 ,1269 ,36.5 ,975 
2014/12/18 12:00,5.0 ,62 ,2.9 ,36 ,862 ,1618 ,43.2 ,975 
2014/12/18 13:00,3.6 ,23 ,2.6 ,39 ,829 ,1606 ,43.5 ,975 
2014/12/18 14:00,2.0 ,317 ,2.9 ,42 ,521 ,1160 ,34.6 ,975 